Charlotte, NC

1:39 PM EDT on October 18, 2017 (GMT -0400)
Charlotte-Douglas International

Weather History for KCLT - August, 2012

Change the Weather History Date:

Thursday, August 9, 2012

  Actual Average Record
Temperature  
Mean Temperature 76 °F 78 °F  
Max Temperature 86 °F 88 °F 104 °F (2007)
Min Temperature 66 °F 68 °F 56 °F (2002)
Degree Days  
Heating Degree Days 0 0  
Month to date heating degree days 0 0  
Since 1 June heating degree days 0 3  
Since 1 July heating degree days 0 0  
Cooling Degree Days 11 13  
Month to date cooling degree days 140 117  
Year to date cooling degree days 1309 1011  
Since 1 June cooling degree days 980 848  
Growing Degree Days 26 (Base 50)    
Moisture  
Dew Point 69 °F    
Average Humidity 79    
Maximum Humidity 97    
Minimum Humidity 61    
Precipitation  
Precipitation 0.61 in 0.13 in 1.26 in (1888)
Month to date precipitation 2.28 1.26  
Year to date precipitation 22.34 25.64  
Snow  
Snow 0.00 in 0.00 in 0.00 in ()
Month to date snowfall 0.0 0.0  
Since 1 June snowfall 0.0 0.0  
Since 1 July snowfall 0.0 0.0  
Snow Depth 0.00 in    
Sea Level Pressure  
Sea Level Pressure 29.95 in    
Wind  
Wind Speed 5 mph (South)    
Max Wind Speed 17 mph    
Max Gust Speed 25 mph    
Visibility 9 miles    
Events Rain , Thunderstorm    
T = Trace of Precipitation, MM = Missing Value Source: NWS Daily Summary

Daily Weather History Graph

Daily Weather History Graph

Search for Another Location

Airport or City:

Trip Planner

Search our weather history database for the weather conditions in past years. The results will help you decide how hot, cold, wet, or windy it might be!

Date:

Astronomy

Aug. 09, 2012 Rise Set
Actual Time 6:39 AM EDT 8:18 PM EDT
Civil Twilight 6:11 AM EDT 8:45 PM EDT
Nautical Twilight 5:39 AM EDT 9:18 PM EDT
Astronomical Twilight 5:04 AM EDT 9:53 PM EDT
Moon No Moon Rise 1:59 PM EDT (8/9)
Length of Visible Light 14h 33m
Length of Day
13h 39m
Waning Gibbous, 51% of the Moon is Illuminated
Aug 9
Waning Gibbous
Aug 9
Last Quarter
Aug 17
New
Aug 24
First Quarter
Aug 31
Full

Hourly Weather History & Observations

Time (EDT) Temp. Heat Index Dew Point Humidity Pressure Visibility Wind Dir Wind Speed Gust Speed Precip Events Conditions
12:52 AM 72.0 °F - 68.0 °F 87% 30.00 in 10.0 mi ESE 3.5 mph - N/A   Partly Cloudy
1:27 AM 71.6 °F - 68.0 °F 88% 30.02 in 10.0 mi SW 3.5 mph - N/A   Mostly Cloudy
1:52 AM 71.1 °F - 69.1 °F 93% 29.99 in 10.0 mi SSW 4.6 mph - N/A   Mostly Cloudy
2:52 AM 69.1 °F - 66.9 °F 93% 29.98 in 9.0 mi Calm Calm - N/A   Mostly Cloudy
3:52 AM 68.0 °F - 66.0 °F 93% 29.98 in 7.0 mi Calm Calm - N/A   Mostly Cloudy
4:52 AM 68.0 °F - 66.0 °F 93% 29.98 in 10.0 mi Calm Calm - N/A   Mostly Cloudy
5:52 AM 66.0 °F - 64.9 °F 96% 29.99 in 10.0 mi Calm Calm - N/A   Mostly Cloudy
6:52 AM 66.9 °F - 64.9 °F 93% 30.00 in 10.0 mi Calm Calm - N/A   Mostly Cloudy
7:52 AM 71.1 °F - 68.0 °F 90% 30.00 in 10.0 mi South 3.5 mph - N/A   Mostly Cloudy
8:52 AM 73.0 °F - 68.0 °F 84% 30.01 in 10.0 mi South 3.5 mph - N/A   Overcast
9:52 AM 75.0 °F - 70.0 °F 84% 30.00 in 10.0 mi Calm Calm - N/A   Overcast
10:52 AM 79.0 °F - 71.1 °F 77% 30.00 in 10.0 mi SSW 3.5 mph - N/A   Overcast
11:52 AM 82.0 °F 85.9 °F 70.0 °F 67% 29.99 in 10.0 mi Variable 5.8 mph - N/A   Overcast
12:52 PM 84.0 °F 89.6 °F 72.0 °F 67% 29.96 in 10.0 mi South 8.1 mph - N/A   Overcast
1:52 PM 84.0 °F 89.0 °F 71.1 °F 65% 29.94 in 10.0 mi SSW 5.8 mph - N/A   Overcast
2:52 PM 86.0 °F 92.2 °F 72.0 °F 63% 29.92 in 10.0 mi SSE 12.7 mph - N/A   Mostly Cloudy
3:52 PM 84.9 °F 89.4 °F 70.0 °F 61% 29.90 in 10.0 mi SSE 8.1 mph - N/A   Overcast
4:52 PM 84.9 °F 88.8 °F 69.1 °F 59% 29.88 in 10.0 mi SSE 8.1 mph - N/A   Overcast
5:52 PM 84.0 °F 88.4 °F 70.0 °F 63% 29.88 in 10.0 mi South 10.4 mph - N/A   Overcast
6:52 PM 82.9 °F 87.0 °F 70.0 °F 65% 29.88 in 10.0 mi South 8.1 mph - N/A   Overcast
7:52 PM 81.0 °F 84.4 °F 70.0 °F 69% 29.88 in 10.0 mi South 9.2 mph - N/A   Overcast
8:52 PM 75.0 °F - 72.0 °F 90% 29.88 in 10.0 mi Variable 3.5 mph - 0.00 in Rain Light Rain
9:12 PM 73.4 °F - 69.8 °F 88% 29.93 in 4.0 mi West 15.0 mph 25.3 mph 0.03 in Rain , Thunderstorm Thunderstorms and Rain
9:28 PM 69.8 °F - 68.0 °F 94% 29.93 in 2.5 mi WNW 11.5 mph 20.7 mph 0.21 in Rain , Thunderstorm Heavy Thunderstorms and Rain
9:46 PM 69.8 °F - 68.0 °F 94% 29.95 in 3.0 mi West 10.4 mph 16.1 mph 0.34 in Rain , Thunderstorm Heavy Thunderstorms and Rain
9:52 PM 70.0 °F - 68.0 °F 93% 29.93 in 3.0 mi West 9.2 mph - 0.38 in Rain , Thunderstorm Heavy Thunderstorms and Rain
10:30 PM 69.8 °F - 68.0 °F 94% 29.94 in 4.0 mi South 3.5 mph - 0.17 in Rain Rain
10:52 PM 70.0 °F - 68.0 °F 93% 29.91 in 9.0 mi South 6.9 mph - 0.22 in Rain Light Rain
11:27 PM 71.6 °F - 68.0 °F 88% 29.91 in 10.0 mi SSE 8.1 mph - 0.00 in Rain Light Rain
11:52 PM 70.0 °F - 68.0 °F 93% 29.87 in 10.0 mi SE 4.6 mph - 0.00 in Rain Light Rain